This demonstration page uses our WeatherBlox Daily Observations layout. Learn more.

Left ArrowRight Arrow

Hourly Observations for July 17, 2015

Temp ( °F °C ) Dew Point ( °F °C ) Humidity (%) Winds ( mph kmh ) Pressure ( in mb ) Visibility ( mi km ) Precip ( " mm )
12:53 am 00:53 Clear 83 28.3 58 14.4 43 43 N 5 7 29.78 1008 10 16 0.00 0.00
1:53 am 01:53 Clear 79 26.1 58 14.4 49 49 NW 3 6 29.78 1009 10 16 0.00 0.00
2:53 am 02:53 Clear 80 26.7 58 14.4 47 47 Calm 29.79 1009 10 16 0.00 0.00
3:53 am 03:53 Clear 76 24.4 58 14.4 54 54 WNW 5 7 29.79 1009 10 16 0.00 0.00
4:53 am 04:53 Clear 78 25.6 54 12.2 43 43 NW 6 9 29.79 1009 10 16 0.00 0.00
5:53 am 05:53 Clear 76 24.4 52 11.1 43 43 NW 5 7 29.79 1009 10 16 0.00 0.00
6:53 am 06:53 Sunny 77 25 52 11.1 42 42 NW 3 6 29.80 1009 10 16 0.00 0.00
7:53 am 07:53 Sunny 84 28.9 48 8.9 29 29 N 8 13 29.79 1009 10 16 0.00 0.00
8:53 am 08:53 Sunny 88 31.1 47 8.3 24 24 N 9 15 29.79 1009 10 16 0.00 0.00
9:53 am 09:53 Sunny 91 32.8 47 8.3 22 22 NNW 8 13 29.78 1009 10 16 0.00 0.00
10:53 am 10:53 Sunny 94 34.4 47 8.3 20 20 VRB 6 9 29.75 1008 10 16 0.00 0.00
11:53 am 11:53 Sunny 97 36.1 45 7.2 17 17 undefined N/A 29.74 1007 10 16 0.00 0.00
12:53 pm 12:53 Sunny 100 37.8 47 8.3 16 16 N 6 9 29.72 1006 10 16 0.00 0.00
1:53 pm 13:53 Sunny 101 38.3 48 8.9 17 17 NW 5 7 29.69 1006 10 16 0.00 0.00
2:53 pm 14:53 Sunny 102 38.9 48 8.9 16 16 SW 8 13 29.67 1005 10 16 0.00 0.00
3:53 pm 15:53 Sunny 104 40 47 8.3 15 15 SSE 12 19 29.63 1003 10 16 0.00 0.00
4:53 pm 16:53 Sunny 105 40.6 48 8.9 15 15 SSE 14 22 29.61 1003 10 16 0.00 0.00
5:53 pm 17:53 Sunny 103 39.4 54 12.2 20 20 S 20 31 29.60 1002 10 16 0.00 0.00
6:53 pm 18:53 Sunny 100 37.8 55 12.8 22 22 S 17 28 29.59 1002 10 16 0.00 0.00
7:53 pm 19:53 Sunny 96 35.6 54 12.2 24 24 S 20 31 29.59 1002 10 16 0.00 0.00
8:53 pm 20:53 Clear 93 33.9 51 10.6 24 24 S 14 22 29.61 1003 10 16 0.00 0.00
9:53 pm 21:53 Clear 91 32.8 53 11.7 27 27 S 10 17 29.63 1003 10 16 0.00 0.00
10:53 pm 22:53 Clear 90 32.2 49 9.4 24 24 S 13 20 29.64 1004 10 16 0.00 0.00
11:53 pm 23:53 Clear 89 31.7 51 10.6 27 27 WSW 5 7 29.66 1004 10 16 0.00 0.00

Powered by AerisWeather